STARLINK-35111, 65463

Orbit data source: Space-Track

STARLINK-35111, 65463 is a payload satellite owned by SpaceX/Seattle (US) in LEO that was launched on Wed, 03 Sep 2025 UTC via an FALCON 9 launch vehicle from the Air Force Eastern Test Range (AFETR). Payload-class satellites include a variety of spacecraft equipped with specific instruments for various scientific and technological missions. These include communications satellites like Starlink; space stations such as the ISS; scientific satellites like the Hubble; Earth observation satellites from companies like Planet Labs, Umbra, and HawkEye 360; GPS; miniature CubeSats for education and research; and military/defense satellites.

Loading next visibility...
Identifier
65463, 2025-195F
Orbit
LEO
Country
Flag of USUS
Related business
Manufacturer
SpaceX/Seattle
Mission
Operational spacecraft
Bus & Motor
STARLINK V2MO, Unknown motor
Mass
575 kg wet, ~530 kg dry
Launch date (UTC)
2025-09-03 (2 weeks ago)
Launch vehicle
FALCON 9
Launch site
Air Force Eastern Test Range (AFETR)
Object type
Payload
Rocket body
Debris
Shape & HBR
Unknown
Radar Cross Section
RCS unknown

Expand to show TLE details & history
Last TLE update: 18 hours ago

TLE from 18 hours ago
0 STARLINK-35111
1 65463U 25195F   25259.58337963 -.01620385  00000-0 -13449-1 0  9992
2 65463  53.1591 352.4938 0001524  70.3950 105.8963 15.72389072  2615
Epoch: 2025-09-16T14:00Z
TLE epoch observation values (Epoch: 2025-09-16T14:00:04Z)
Latitude
2.89058°
Longitude
-35.45028°
Altitude
352.939 km
Speed
7.699 km/s
True Right ascension
11h 21m 21s
True Declination
2° 52' 20"
Sunlit
Object was in daylight at epoch
Visualization orbit readout
Latitude
Unknown
Longitude
Unknown
Altitude
Unknown
Speed
Unknown
Apparent Right ascension
Unknown
Apparent Declination
Unknown
Sunlit
N/A
Visualization observer readout
Local Sidereal Time
00:43:06
Azimuth
Unknown
Elevation
Unknown
Doppler factor
Unknown
Orbital elements
Apogee altitude
353.358 km
Perigee altitude
351.307 km
Semi-major axis
6,730.469 km
Eccentricity
0.00015
Inclination
53.1591°
RAAN
352.4938°
Arg. of periapsis
70.395°
True anomaly
105.9131°
Mean anomaly
105.8963°
Eccentric anomaly
105.9047°
Mean motion
3.93075 °/min
Orbital period
91.59 mins
BSTAR
-0.013449
Loading maneuver chart data...
Computing Atmospheric mass density...
Loading historical data...
Loading historical data...
Loading historical data...
Loading historical data...
Loading historical data...
Loading historical data...
Loading historical data...

Documentation

Showing up to 5 results
|